Time+03,TemperatureF,Dew PointF,Humidity,Sea Level PressureIn,VisibilityMPH,Wind Direction,Wind SpeedMPH,Gust SpeedMPH,PrecipitationIn,Events,Conditions,WindDirDegrees,DateUTC
12:55 AM,58.1,51.6,79,30.10,6.2,SSE,4.6,-,N/A,,Clear,150,2013-01-20 21:55:00
1:55 AM,56.5,49.6,78,30.09,6.2,SSE,6.9,-,N/A,,Clear,150,2013-01-20 22:55:00
2:55 AM,57.2,52.5,84,30.10,6.2,SSE,5.8,-,N/A,,Clear,150,2013-01-20 23:55:00
3:55 AM,56.8,51.8,83,30.09,6.2,SE,3.5,-,N/A,,Clear,130,2013-01-21 00:55:00
4:55 AM,55.2,50.9,85,30.12,6.2,Calm,Calm,-,N/A,,Clear,0,2013-01-21 01:55:00
5:24 AM,53.6,50.0,88,30.13,6.2,South,3.5,-,N/A,,Partly Cloudy,170,2013-01-21 02:24:00
5:27 AM,53.6,50.0,88,30.13,-9999.0,SSE,3.5,-,N/A,,Partly Cloudy,160,2013-01-21 02:27:00
5:28 AM,53.6,51.8,94,30.13,1.2,SSE,3.5,-,N/A,,Scattered Clouds,160,2013-01-21 02:28:00
5:29 AM,53.6,50.0,88,30.13,0.7,SSE,3.5,-,N/A,,Mist,160,2013-01-21 02:29:00
5:30 AM,53.6,51.8,94,30.13,0.5,SSE,3.5,-,N/A,Fog,Fog,160,2013-01-21 02:30:00
5:33 AM,53.6,51.8,94,30.13,0.2,SSE,3.5,-,N/A,Fog,Fog,160,2013-01-21 02:33:00
5:36 AM,53.6,51.8,94,30.14,0.2,SSE,3.5,-,N/A,Fog,Fog,160,2013-01-21 02:36:00
5:37 AM,53.6,51.8,94,30.14,-9999.0,SSE,3.5,-,N/A,Fog,Fog,160,2013-01-21 02:37:00
5:50 AM,51.8,51.8,100,30.14,0.2,Calm,Calm,-,N/A,Fog,Fog,0,2013-01-21 02:50:00
5:55 AM,52.7,52.0,97,30.14,0.2,South,3.5,-,N/A,Fog,Fog,170,2013-01-21 02:55:00
6:13 AM,53.6,51.8,94,30.15,-9999.0,South,3.5,-,N/A,Fog,Fog,180,2013-01-21 03:13:00
6:28 AM,53.6,51.8,94,30.15,-9999.0,South,3.5,-,N/A,Fog,Fog,190,2013-01-21 03:28:00
6:39 AM,53.6,51.8,94,30.15,-9999.0,Calm,Calm,-,N/A,Fog,Fog,0,2013-01-21 03:39:00
6:55 AM,52.7,52.2,98,30.16,-9999.0,Calm,Calm,-,N/A,Fog,Fog,0,2013-01-21 03:55:00
6:58 AM,51.8,51.8,100,30.16,-9999.0,Calm,Calm,-,N/A,Fog,Fog,0,2013-01-21 03:58:00
7:06 AM,53.6,51.8,94,30.17,0.2,SW,3.5,-,N/A,Fog,Fog,220,2013-01-21 04:06:00
7:07 AM,53.6,51.8,94,30.17,0.2,SW,3.5,-,N/A,Fog,Fog,230,2013-01-21 04:07:00
7:08 AM,53.6,51.8,94,30.17,0.2,SW,3.5,-,N/A,Fog,Fog,230,2013-01-21 04:08:00
7:09 AM,51.8,51.8,100,30.17,0.5,SW,3.5,-,N/A,Fog,Fog,220,2013-01-21 04:09:00
7:12 AM,51.8,51.8,100,30.17,0.7,SW,3.5,-,N/A,,Mist,220,2013-01-21 04:12:00
7:14 AM,51.8,51.8,100,30.17,1.0,SW,3.5,-,N/A,,Mist,220,2013-01-21 04:14:00
7:15 AM,51.8,51.8,100,30.17,1.5,SW,3.5,-,N/A,,Scattered Clouds,220,2013-01-21 04:15:00
7:16 AM,51.8,51.8,100,30.17,1.7,SW,3.5,-,N/A,,Scattered Clouds,220,2013-01-21 04:16:00
7:17 AM,51.8,51.8,100,30.17,-9999.0,Calm,Calm,-,N/A,,Scattered Clouds,0,2013-01-21 04:17:00
7:18 AM,51.8,51.8,100,30.17,2.5,Calm,Calm,-,N/A,,Partly Cloudy,0,2013-01-21 04:18:00
7:19 AM,51.8,51.8,100,30.17,-9999.0,Calm,Calm,-,N/A,,Partly Cloudy,0,2013-01-21 04:19:00
7:21 AM,53.6,51.8,94,30.17,3.7,Calm,Calm,-,N/A,,Partly Cloudy,0,2013-01-21 04:21:00
7:55 AM,56.1,55.6,98,30.17,6.2,South,3.5,-,N/A,,Clear,190,2013-01-21 04:55:00
8:55 AM,62.4,59.2,89,30.19,6.2,South,6.9,-,N/A,,Partly Cloudy,180,2013-01-21 05:55:00
9:55 AM,68.2,50.9,54,30.19,6.2,South,8.1,-,N/A,,Partly Cloudy,170,2013-01-21 06:55:00
10:55 AM,72.7,41.0,32,30.17,6.2,South,9.2,-,N/A,,Partly Cloudy,170,2013-01-21 07:55:00
11:55 AM,75.4,38.7,27,30.13,6.2,South,6.9,-,N/A,,Partly Cloudy,170,2013-01-21 08:55:00
12:55 PM,76.8,36.9,24,30.10,6.2,SSW,8.1,-,N/A,,Partly Cloudy,200,2013-01-21 09:55:00
1:55 PM,77.9,36.3,22,30.08,6.2,SSW,5.8,-,N/A,,Partly Cloudy,210,2013-01-21 10:55:00
2:55 PM,77.9,36.3,22,30.07,6.2,Variable,3.5,-,N/A,,Clear,0,2013-01-21 11:55:00
3:55 PM,77.7,36.5,23,30.07,6.2,Calm,Calm,-,N/A,,Clear,0,2013-01-21 12:55:00
4:55 PM,73.9,40.1,29,30.09,6.2,SE,10.4,-,N/A,,Clear,130,2013-01-21 13:55:00
5:55 PM,69.6,41.7,36,30.11,6.2,SE,4.6,-,N/A,,Clear,140,2013-01-21 14:55:00
6:55 PM,66.7,45.5,46,30.12,6.2,SSE,5.8,-,N/A,,Clear,150,2013-01-21 15:55:00
7:55 PM,66.0,49.1,54,30.13,6.2,ESE,5.8,-,N/A,,Clear,110,2013-01-21 16:55:00
8:55 PM,64.4,47.1,53,30.13,6.2,ESE,3.5,-,N/A,,Clear,110,2013-01-21 17:55:00
9:55 PM,63.5,45.7,52,30.13,6.2,Calm,Calm,-,N/A,,Clear,0,2013-01-21 18:55:00
10:55 PM,62.6,47.8,58,30.12,6.2,Calm,Calm,-,N/A,,Clear,0,2013-01-21 19:55:00
11:55 PM,58.6,45.7,62,30.12,6.2,Calm,Calm,-,N/A,,Clear,0,2013-01-21 20:55:00